QPF
0.00 0.00 0.00 0.00 0.00 0.00 0.00 0.00 0.00 0.00 0.00 0.00 0.00 0.00 0.00 0.00 0.00 0.00 0.00 0.00 0.00 0.00 0.00 0.00 0.00 0.00 0.00 0.00 0.00 0.00 0.00 0.00 0.00 0.00 0.00 0.00 0.00 0.00 0.01 0.02 0.02 0.02 0.01 0.00
0.00 0.00 0.00 0.00 0.00 0.00 0.00 0.00 0.00 0.00 0.00 0.00 0.00 0.00 0.00 0.00 0.00 0.00 0.00 0.00 0.00 0.00 0.00 0.00 0.00 0.00 0.00 0.00 0.00 0.00 0.00 0.00 0.00 0.00 0.00 0.00 0.00 0.01 0.04 0.08 0.05 0.02 0.00 0.00
0.00 0.00 0.00 0.00 0.00 0.00 0.00 0.00 0.00 0.00 0.00 0.00 0.00 0.00 0.00 0.00 0.00 0.00 0.00 0.00 0.00 0.00 0.00 0.00 0.00 0.00 0.00 0.00 0.00 0.00 0.00 0.00 0.00 0.00 0.00 0.00 0.00 0.02 0.05 0.04 0.01 0.00 0.00 0.00
0.00 0.00 0.00 0.00 0.00 0.00 0.00 0.00 0.00 0.00 0.00 0.00 0.00 0.00 0.00 0.00 0.00 0.00 0.00 0.00 0.00 0.00 0.00 0.00 0.01 0.00 0.00 0.00 0.00 0.00 0.00 0.00 0.00 0.00 0.00 0.01 0.04 0.05 0.03 0.00 0.00 0.00 0.00 0.00
0.00 0.00 0.00 0.00 0.00 0.00 0.00 0.00 0.00 0.00 0.00 0.00 0.00 0.00 0.00 0.00 0.00 0.00 0.00 0.00 0.00 0.00 0.00 0.00 0.00 0.00 0.00 0.00 0.00 0.00 0.00 0.00 0.00 0.00 0.00 0.02 0.02 0.00 0.00 0.00 0.00 0.00 0.00 0.00
0.00 0.00 0.00 0.00 0.00 0.00 0.00 0.00 0.00 0.00 0.00 0.00 0.00 0.00 0.00 0.00 0.00 0.00 0.00 0.00 0.00 0.00 0.00 0.00 0.00 0.00 0.00 0.00 0.00 0.00 0.00 0.00 0.00 0.00 0.00 0.00 0.00 0.00 0.00 0.00 0.00 0.00 0.00 0.00
0.00 0.00 0.00 0.00 0.00 0.00 0.00 0.00 0.00 0.00 0.00 0.00 0.00 0.00 0.00 0.00 0.00 0.00 0.00 0.00 0.00 0.00 0.00 0.00 0.00 0.00 0.00 0.00 0.00 0.00 0.00 0.00 0.00 0.00 0.00 0.00 0.00 0.00 0.00 0.00 0.00 0.00 0.00 0.00
0.00 0.00 0.00 0.00 0.00 0.00 0.00 0.00 0.00 0.00 0.00 0.00 0.00 0.00 0.00 0.00 0.00 0.00 0.00 0.00 0.00 0.00 0.00 0.00 0.00 0.00 0.00 0.00 0.00 0.00 0.00 0.00 0.00 0.00 0.00 0.00 0.00 0.00 0.00 0.00 0.00 0.00 0.00 0.00
0.00 0.00 0.00 0.00 0.00 0.00 0.00 0.00 0.00 0.00 0.00 0.00 0.00 0.00 0.00 0.00 0.00 0.00 0.00 0.00 0.00 0.00 0.00 0.00 0.00 0.00 0.00 0.00 0.00 0.00 0.00 0.00 0.00 0.00 0.00 0.00 0.00 0.00 0.00 0.00 0.00 0.00 0.00 0.00
0.00 0.00 0.00 0.00 0.00 0.00 0.00 0.00 0.00 0.00 0.00 0.00 0.00 0.00 0.00 0.00 0.00 0.00 0.00 0.00 0.00 0.00 0.00 0.00 0.00 0.00 0.00 0.00 0.00 0.00 0.00 0.00 0.00 0.00 0.00 0.00 0.00 0.00 0.00 0.00 0.00 0.00 0.00 0.00
0.00 0.00 0.00 0.00 0.00 0.00 0.00 0.00 0.00 0.00 0.00 0.00 0.00 0.00 0.00 0.00 0.00 0.00 0.00 0.00 0.00 0.00 0.00 0.00 0.00 0.00 0.00 0.00 0.00 0.00 0.00 0.00 0.00 0.00 0.00 0.00 0.00 0.00 0.00 0.00 0.00 0.00 0.00 0.00
0.00 0.00 0.00 0.00 0.00 0.00 0.00 0.00 0.00 0.00 0.00 0.00 0.00 0.00 0.00 0.00 0.00 0.00 0.00 0.00 0.00 0.00 0.00 0.00 0.00 0.00 0.00 0.00 0.00 0.00 0.00 0.00 0.00 0.00 0.00 0.00 0.00 0.00 0.00 0.00 0.00 0.00 0.00 0.00
0.00 0.00 0.00 0.00 0.00 0.00 0.00 0.00 0.00 0.00 0.00 0.00 0.00 0.00 0.00 0.00 0.00 0.00 0.00 0.00 0.00 0.00 0.00 0.00 0.00 0.00 0.00 0.00 0.00 0.00 0.00 0.00 0.00 0.00 0.00 0.00 0.00 0.00 0.00 0.00 0.00 0.00 0.00 0.00
0.00 0.00 0.00 0.00 0.00 0.00 0.00 0.00 0.00 0.00 0.00 0.00 0.00 0.00 0.00 0.00 0.00 0.00 0.00 0.00 0.00 0.00 0.00 0.00 0.00 0.01 0.00 0.00 0.00 0.00 0.00 0.00 0.00 0.00 0.00 0.00 0.00 0.00 0.00 0.00 0.00 0.00 0.00 0.00
0.00 0.00 0.00 0.00 0.00 0.00 0.00 0.00 0.00 0.00 0.00 0.00 0.00 0.00 0.00 0.00 0.00 0.00 0.00 0.00 0.00 0.00 0.00 0.00 0.01 0.03 0.02 0.00 0.00 0.00 0.00 0.00 0.00 0.00 0.00 0.00 0.00 0.00 0.00 0.00 0.00 0.00 0.00 0.00
0.00 0.00 0.00 0.00 0.00 0.00 0.00 0.00 0.00 0.00 0.00 0.00 0.00 0.00 0.00 0.00 0.00 0.00 0.00 0.00 0.00 0.00 0.00 0.01 0.04 0.05 0.01 0.00 0.00 0.00 0.00 0.00 0.00 0.00 0.00 0.00 0.00 0.00 0.00 0.00 0.00 0.00 0.00 0.00
0.00 0.00 0.00 0.00 0.00 0.00 0.00 0.00 0.00 0.00 0.00 0.00 0.00 0.00 0.00 0.00 0.00 0.00 0.00 0.00 0.00 0.00 0.00 0.02 0.06 0.03 0.00 0.00 0.00 0.00 0.00 0.00 0.00 0.00 0.00 0.00 0.00 0.00 0.00 0.00 0.00 0.00 0.00 0.00
0.00 0.00 0.00 0.00 0.00 0.00 0.00 0.00 0.00 0.00 0.00 0.00 0.00 0.00 0.00 0.00 0.00 0.00 0.00 0.00 0.00 0.00 0.00 0.03 0.04 0.01 0.00 0.00 0.00 0.00 0.00 0.00 0.00 0.00 0.00 0.00 0.00 0.00 0.00 0.00 0.00 0.00 0.00 0.00
0.00 0.00 0.00 0.00 0.00 0.00 0.00 0.00 0.00 0.00 0.00 0.00 0.00 0.00 0.00 0.00 0.00 0.00 0.00 0.00 0.00 0.00 0.02 0.04 0.02 0.00 0.00 0.00 0.00 0.00 0.00 0.00 0.00 0.00 0.00 0.00 0.00 0.00 0.00 0.00 0.00 0.00 0.00 0.00
0.00 0.00 0.00 0.00 0.00 0.00 0.00 0.00 0.00 0.00 0.00 0.00 0.00 0.00 0.00 0.00 0.00 0.00 0.00 0.00 0.00 0.00 0.01 0.00 0.00 0.00 0.00 0.00 0.00 0.00 0.00 0.00 0.00 0.00 0.00 0.00 0.00 0.00 0.00 0.00 0.00 0.00 0.00 0.00
0.00 0.00 0.00 0.00 0.00 0.00 0.00 0.00 0.00 0.00 0.00 0.00 0.00 0.00 0.00 0.00 0.00 0.00 0.00 0.00 0.00 0.00 0.00 0.00 0.00 0.00 0.00 0.00 0.00 0.00 0.00 0.00 0.00 0.00 0.00 0.00 0.00 0.00 0.00 0.00 0.00 0.00 0.00 0.00
0.00 0.00 0.00 0.00 0.00 0.00 0.00 0.00 0.00 0.00 0.00 0.00 0.00 0.00 0.00 0.00 0.00 0.00 0.00 0.00 0.00 0.00 0.00 0.01 0.00 0.00 0.00 0.00 0.00 0.00 0.00 0.00 0.00 0.00 0.00 0.00 0.00 0.00 0.00 0.00 0.00 0.00 0.00 0.00
0.00 0.00 0.00 0.00 0.00 0.00 0.00 0.00 0.00 0.00 0.00 0.00 0.00 0.00 0.00 0.00 0.00 0.00 0.01 0.00 0.01 0.03 0.02 0.00 0.00 0.00 0.00 0.00 0.00 0.00 0.00 0.00 0.00 0.00 0.00 0.00 0.00 0.00 0.00 0.00 0.00 0.00 0.00 0.00
0.00 0.00 0.00 0.00 0.00 0.00 0.00 0.00 0.00 0.00 0.00 0.00 0.00 0.00 0.00 0.00 0.00 0.01 0.02 0.00 0.01 0.01 0.00 0.00 0.00 0.00 0.00 0.00 0.00 0.00 0.00 0.00 0.00 0.00 0.00 0.00 0.00 0.00 0.00 0.00 0.00 0.00 0.00 0.00
0.00 0.00 0.00 0.00 0.00 0.00 0.00 0.00 0.00 0.00 0.00 0.00 0.00 0.00 0.00 0.00 0.00 0.00 0.01 0.01 0.01 0.01 0.00 0.00 0.00 0.00 0.00 0.00 0.00 0.00 0.00 0.00 0.00 0.00 0.00 0.00 0.00 0.00 0.00 0.00 0.00 0.00 0.00 0.00
0.00 0.00 0.00 0.00 0.00 0.00 0.00 0.00 0.00 0.00 0.00 0.00 0.00 0.00 0.00 0.00 0.00 0.03 0.04 0.04 0.03 0.02 0.00 0.00 0.00 0.00 0.00 0.00 0.00 0.00 0.00 0.00 0.00 0.00 0.00 0.00 0.00 0.00 0.00 0.00 0.00 0.00 0.00 0.00
MSLP
1012.01 1012.70 1012.91 1013.00 1012.99 1013.07 1013.07 1013.00 1012.64 1011.69 1011.04 1011.09 1010.57 1010.24 1009.31 1008.98 1009.27 1009.87 1010.40 1010.44 1010.82 1011.52 1011.96 1012.54 1012.82 1012.94 1012.87 1013.27 1013.64 1014.08 1014.73 1015.14 1015.70 1016.54 1017.51 1018.16 1018.74 1019.38 1019.72 1019.81 1019.91 1019.86 1020.14 1020.19
1012.42 1012.54 1012.36 1012.41 1012.51 1012.74 1012.81 1012.76 1012.48 1011.41 1010.98 1011.21 1010.38 1010.28 1010.01 1009.83 1010.04 1009.93 1009.80 1010.85 1011.45 1012.11 1012.93 1013.62 1013.68 1013.61 1013.68 1014.11 1014.22 1014.23 1014.79 1015.33 1015.89 1016.41 1017.18 1017.68 1018.66 1019.44 1019.65 1019.71 1019.78 1019.98 1020.21 1020.25
1012.21 1011.96 1011.57 1012.00 1012.14 1012.33 1012.38 1012.48 1012.40 1012.16 1011.31 1010.60 1010.67 1010.68 1010.34 1010.18 1010.36 1010.24 1010.46 1011.03 1011.71 1012.15 1012.96 1013.81 1014.04 1014.25 1014.35 1014.71 1014.39 1014.71 1015.30 1015.73 1016.24 1016.61 1017.20 1017.95 1018.65 1019.22 1019.70 1020.03 1020.14 1020.35 1020.57 1020.51
1011.79 1011.27 1011.50 1011.71 1011.80 1011.96 1012.03 1011.56 1011.79 1011.93 1012.10 1011.90 1011.42 1011.73 1010.97 1010.88 1010.68 1010.64 1011.01 1011.36 1011.68 1012.27 1013.15 1013.90 1014.31 1014.68 1015.02 1014.96 1014.96 1015.29 1015.75 1016.13 1016.64 1016.90 1017.34 1017.73 1018.64 1019.58 1020.06 1020.36 1020.76 1021.00 1020.77 1020.56
1011.30 1011.08 1011.09 1011.19 1011.10 1011.33 1011.36 1011.16 1011.62 1011.91 1012.45 1012.52 1012.12 1012.28 1011.19 1011.30 1010.90 1010.37 1010.95 1011.77 1012.03 1012.44 1013.04 1013.88 1014.53 1015.07 1015.53 1015.49 1015.65 1015.87 1016.30 1016.69 1017.17 1017.46 1017.81 1018.40 1019.27 1019.95 1020.56 1020.77 1020.93 1021.08 1021.02 1020.79
1010.91 1010.57 1010.45 1010.22 1010.34 1010.64 1010.84 1011.34 1012.01 1012.74 1013.20 1013.47 1012.59 1012.62 1012.10 1011.54 1010.85 1010.50 1010.64 1011.75 1012.49 1013.19 1013.54 1014.11 1014.74 1015.25 1015.87 1016.15 1016.42 1016.72 1017.15 1017.83 1017.97 1018.24 1018.62 1019.06 1019.64 1020.25 1020.49 1020.97 1021.21 1021.18 1021.08 1020.92
1011.04 1010.55 1010.03 1009.78 1010.18 1010.53 1011.03 1012.47 1013.42 1014.11 1014.60 1014.16 1012.91 1012.92 1011.70 1010.46 1010.29 1010.40 1010.39 1011.59 1012.40 1013.28 1013.86 1014.32 1014.91 1015.58 1016.14 1016.52 1016.78 1017.14 1017.60 1018.33 1018.51 1018.81 1019.30 1019.47 1019.64 1020.03 1020.59 1020.98 1021.13 1021.00 1021.07 1021.14
1011.43 1010.68 1009.67 1009.43 1009.68 1010.43 1011.12 1012.13 1013.48 1014.27 1014.98 1014.39 1013.51 1012.42 1010.76 1010.37 1010.45 1010.10 1010.42 1011.23 1012.29 1013.05 1013.73 1014.32 1015.09 1015.73 1016.10 1016.63 1017.08 1017.75 1017.87 1018.62 1018.99 1019.22 1019.46 1019.55 1019.71 1020.09 1020.62 1020.82 1020.99 1021.27 1021.17 1021.21
1011.42 1010.69 1009.48 1009.04 1008.97 1009.69 1010.90 1011.82 1012.51 1013.81 1014.88 1014.79 1013.45 1011.96 1010.56 1010.36 1010.36 1010.62 1011.12 1011.57 1012.24 1012.83 1013.40 1014.14 1014.94 1015.65 1016.10 1016.61 1017.11 1017.48 1018.40 1019.10 1019.27 1019.51 1019.95 1019.94 1019.71 1020.17 1020.63 1020.95 1021.15 1021.08 1020.96 1020.48
1011.06 1010.96 1009.63 1009.11 1009.14 1009.48 1010.00 1011.06 1012.51 1014.03 1014.97 1014.91 1013.77 1012.67 1011.42 1010.53 1010.44 1010.90 1011.46 1011.68 1012.06 1012.66 1013.38 1014.08 1014.92 1015.66 1016.32 1017.01 1016.81 1017.94 1018.81 1019.09 1019.46 1019.75 1019.86 1019.94 1019.93 1020.42 1020.80 1020.88 1020.86 1020.94 1020.61 1020.45
1011.02 1011.13 1010.00 1009.78 1009.73 1009.77 1010.51 1011.11 1012.37 1013.59 1014.22 1014.43 1013.87 1012.64 1009.95 1009.53 1009.55 1010.02 1010.78 1011.07 1011.55 1012.26 1013.11 1013.87 1014.69 1015.49 1016.18 1016.82 1017.51 1018.33 1018.84 1019.20 1019.37 1019.71 1019.92 1019.91 1020.20 1020.55 1020.65 1020.62 1020.79 1020.83 1020.63 1020.69
1011.63 1011.84 1011.36 1010.20 1009.31 1009.14 1009.73 1010.62 1011.85 1013.50 1014.02 1013.95 1013.20 1011.18 1009.33 1009.09 1009.08 1009.51 1010.09 1010.60 1011.33 1012.04 1012.74 1013.59 1014.55 1015.35 1016.07 1016.87 1017.74 1018.29 1018.96 1019.17 1019.26 1019.48 1019.82 1019.82 1020.05 1020.30 1020.57 1020.64 1020.65 1020.68 1020.61 1020.59
1012.11 1012.44 1012.19 1010.91 1010.51 1009.82 1010.12 1010.51 1010.77 1011.83 1012.64 1012.93 1012.68 1010.51 1008.97 1008.64 1008.84 1009.09 1009.43 1010.03 1010.94 1011.87 1012.86 1013.74 1014.59 1015.45 1016.16 1017.07 1017.89 1018.43 1018.77 1018.98 1019.03 1019.36 1019.54 1019.78 1020.06 1020.43 1020.63 1020.47 1020.51 1020.59 1020.67 1020.54
1012.68 1013.25 1013.06 1012.36 1011.53 1011.02 1010.73 1010.56 1010.76 1011.24 1012.05 1011.92 1010.66 1009.72 1008.80 1008.74 1008.57 1008.76 1008.98 1009.55 1010.58 1011.39 1012.42 1013.51 1014.51 1015.54 1016.37 1017.05 1017.85 1018.24 1018.56 1018.73 1019.03 1019.39 1019.55 1019.78 1020.14 1020.38 1020.47 1020.52 1020.54 1020.58 1020.51 1020.34
1014.57 1014.34 1013.47 1012.56 1011.95 1011.25 1010.59 1010.13 1009.99 1010.42 1010.02 1010.35 1009.41 1009.18 1008.06 1007.83 1008.07 1007.87 1008.12 1009.67 1010.34 1010.98 1011.89 1012.82 1013.73 1014.70 1015.71 1016.47 1017.39 1017.91 1018.38 1018.74 1019.29 1019.39 1019.64 1019.91 1020.08 1020.25 1020.43 1020.47 1020.40 1020.27 1020.11 1019.99
1015.77 1015.11 1014.20 1013.02 1011.66 1010.92 1010.09 1009.11 1008.87 1008.77 1008.73 1008.62 1008.39 1008.04 1007.00 1006.84 1007.36 1007.71 1007.62 1008.60 1009.35 1010.02 1010.98 1012.08 1013.72 1014.66 1015.33 1016.10 1016.80 1017.77 1018.30 1018.96 1019.18 1019.40 1019.64 1019.78 1020.02 1020.24 1020.30 1020.19 1020.14 1020.02 1019.89 1019.83
1016.94 1016.01 1015.26 1013.85 1012.34 1010.82 1008.89 1007.31 1007.31 1007.05 1006.74 1006.73 1006.73 1006.21 1006.46 1007.05 1006.94 1006.80 1007.15 1007.46 1007.73 1009.06 1010.26 1011.31 1012.34 1013.51 1014.77 1015.57 1016.54 1017.55 1018.37 1018.89 1019.11 1019.43 1019.65 1019.69 1019.76 1019.89 1019.94 1019.92 1019.91 1019.85 1019.77 1019.62
1016.81 1016.49 1015.92 1014.85 1013.33 1011.19 1006.70 1006.25 1006.12 1005.95 1005.51 1005.43 1005.22 1005.30 1005.53 1005.81 1005.63 1005.80 1006.05 1006.75 1007.65 1008.57 1009.77 1011.23 1012.70 1013.75 1014.57 1015.54 1016.55 1017.59 1018.45 1018.80 1019.21 1019.50 1019.50 1019.45 1019.50 1019.55 1019.70 1019.78 1019.85 1019.78 1019.63 1019.51
1016.07 1016.17 1016.16 1015.12 1013.49 1009.96 1006.68 1006.21 1005.62 1005.24 1004.56 1004.38 1004.74 1005.14 1005.44 1005.92 1006.30 1006.07 1005.71 1005.94 1006.82 1007.80 1009.14 1010.52 1012.00 1013.43 1014.73 1015.57 1016.46 1017.39 1018.22 1018.87 1019.23 1019.33 1019.34 1019.36 1019.43 1019.47 1019.57 1019.67 1019.64 1019.56 1019.48 1019.19
1016.03 1016.11 1015.45 1014.86 1013.44 1010.52 1007.18 1005.49 1005.68 1005.22 1003.82 1003.41 1004.04 1004.84 1005.63 1006.40 1006.89 1005.39 1004.97 1005.68 1006.71 1007.91 1009.17 1010.51 1012.08 1013.58 1014.82 1016.13 1016.79 1017.71 1018.40 1018.74 1019.19 1019.14 1019.03 1019.23 1019.38 1019.44 1019.48 1019.54 1019.58 1019.41 1019.30 1019.03
1015.98 1015.98 1015.23 1014.53 1013.21 1009.38 1006.95 1005.89 1005.36 1006.01 1003.45 1002.97 1003.32 1004.08 1005.48 1006.18 1005.62 1005.18 1005.30 1006.83 1006.88 1008.03 1009.61 1011.02 1012.63 1013.76 1014.78 1015.85 1016.47 1017.62 1018.51 1018.61 1018.84 1019.08 1018.93 1019.10 1019.28 1019.23 1019.27 1019.31 1019.37 1019.24 1019.07 1018.79
1015.07 1015.07 1014.95 1014.33 1013.07 1009.81 1006.25 1006.02 1005.49 1004.30 1003.86 1004.04 1004.11 1004.21 1004.59 1005.37 1005.99 1006.34 1007.07 1007.47 1009.02 1009.60 1010.44 1011.53 1012.96 1014.31 1015.61 1016.61 1017.29 1018.18 1018.65 1018.54 1018.85 1018.99 1018.91 1019.08 1019.08 1019.11 1019.17 1019.30 1019.16 1018.97 1018.91 1018.61
1015.42 1014.49 1014.23 1013.28 1010.36 1007.65 1006.98 1006.55 1005.81 1005.46 1005.22 1004.64 1004.40 1004.08 1004.73 1005.67 1006.55 1007.16 1007.83 1008.56 1009.22 1009.99 1010.85 1011.69 1012.75 1014.26 1015.44 1016.04 1016.75 1018.39 1018.52 1018.61 1018.82 1019.16 1019.00 1018.97 1019.07 1019.13 1019.10 1019.12 1018.94 1018.73 1018.66 1018.51
1015.18 1014.32 1013.94 1013.24 1008.78 1008.66 1007.91 1007.07 1006.20 1005.32 1004.89 1004.29 1004.54 1004.26 1004.69 1005.40 1006.38 1007.18 1007.93 1008.93 1009.55 1010.30 1011.09 1012.08 1012.96 1014.09 1015.47 1016.59 1017.12 1017.79 1018.27 1018.47 1018.98 1019.17 1019.09 1019.02 1019.14 1019.15 1019.05 1018.94 1018.85 1018.64 1018.47 1018.34
1015.65 1014.87 1013.81 1011.72 1009.94 1009.11 1007.51 1006.99 1006.24 1005.38 1004.81 1004.39 1004.25 1004.33 1004.56 1005.40 1006.56 1006.87 1007.71 1008.98 1009.64 1010.43 1011.31 1012.17 1013.16 1014.94 1015.47 1016.75 1017.15 1017.63 1018.02 1018.58 1018.91 1019.12 1019.06 1019.09 1019.17 1019.13 1018.95 1018.74 1018.44 1018.31 1018.13 1018.07
1014.65 1013.55 1012.91 1010.96 1010.04 1009.63 1008.42 1007.50 1006.51 1006.12 1005.43 1004.33 1004.12 1004.44 1004.74 1005.32 1006.14 1007.52 1008.56 1009.59 1010.61 1011.29 1012.57 1012.91 1014.27 1015.29 1016.05 1016.56 1017.07 1017.64 1017.99 1018.43 1018.75 1018.96 1019.07 1019.07 1018.99 1018.84 1018.67 1018.39 1018.05 1017.93 1017.83 1017.62
Thickness
5743 5725 5718 5727 5733 5732 5733 5728 5725 5737 5752 5750 5750 5757 5779 5787 5791 5784 5783 5790 5794 5788 5790 5786 5786 5787 5785 5779 5773 5772 5765 5760 5753 5744 5733 5725 5717 5709 5702 5696 5689 5684 5677 5673
5725 5715 5733 5739 5737 5732 5730 5726 5722 5740 5751 5745 5754 5758 5771 5779 5782 5785 5790 5784 5780 5780 5776 5773 5775 5778 5776 5770 5768 5769 5763 5755 5748 5742 5732 5725 5713 5703 5695 5688 5683 5677 5670 5666
5710 5729 5737 5734 5732 5729 5727 5724 5724 5728 5740 5752 5752 5751 5761 5775 5778 5785 5786 5784 5779 5779 5773 5768 5769 5768 5767 5762 5765 5761 5754 5748 5742 5736 5728 5718 5707 5697 5687 5679 5674 5667 5661 5658
5718 5732 5730 5726 5726 5727 5718 5737 5734 5733 5727 5710 5745 5711 5748 5755 5764 5775 5775 5774 5776 5775 5769 5765 5763 5760 5756 5757 5756 5752 5745 5739 5733 5728 5721 5712 5699 5687 5678 5671 5663 5657 5655 5652
5715 5726 5721 5718 5724 5729 5724 5741 5736 5734 5718 5720 5729 5713 5741 5747 5760 5774 5771 5766 5770 5770 5767 5761 5757 5752 5749 5749 5746 5742 5737 5731 5723 5718 5711 5702 5689 5679 5668 5662 5658 5652 5648 5644
5721 5735 5731 5731 5735 5735 5743 5736 5722 5710 5702 5687 5720 5713 5719 5737 5754 5770 5773 5765 5762 5759 5759 5756 5753 5748 5742 5739 5735 5732 5727 5717 5712 5707 5700 5691 5681 5670 5665 5657 5650 5645 5640 5635
5711 5717 5733 5741 5726 5732 5731 5700 5672 5681 5677 5679 5715 5706 5722 5755 5761 5767 5775 5760 5760 5757 5751 5750 5746 5741 5736 5732 5729 5725 5718 5708 5703 5697 5689 5683 5676 5668 5659 5651 5644 5639 5633 5626
5681 5685 5718 5737 5726 5716 5709 5701 5667 5669 5663 5687 5703 5697 5726 5750 5757 5768 5765 5759 5754 5751 5746 5744 5740 5735 5731 5727 5722 5714 5710 5701 5694 5688 5684 5678 5671 5663 5653 5645 5638 5629 5624 5617
5673 5684 5722 5733 5737 5728 5710 5694 5711 5681 5677 5672 5689 5713 5743 5746 5749 5754 5750 5752 5749 5747 5746 5741 5736 5730 5726 5721 5717 5710 5700 5692 5687 5681 5674 5668 5664 5655 5645 5636 5628 5622 5616 5613
5697 5681 5716 5727 5733 5729 5720 5716 5692 5669 5672 5668 5677 5693 5709 5735 5740 5743 5743 5744 5746 5743 5742 5737 5731 5725 5719 5713 5712 5702 5693 5687 5680 5674 5668 5660 5652 5643 5634 5627 5621 5615 5611 5606
5696 5688 5707 5713 5704 5701 5698 5696 5688 5682 5668 5660 5661 5680 5732 5745 5748 5746 5744 5748 5747 5742 5738 5733 5728 5721 5714 5709 5702 5693 5686 5679 5674 5666 5658 5651 5642 5634 5626 5622 5617 5610 5604 5596
5691 5673 5675 5693 5716 5721 5710 5699 5691 5661 5674 5665 5665 5678 5745 5746 5749 5747 5746 5749 5745 5741 5737 5731 5724 5717 5710 5702 5693 5686 5678 5673 5666 5660 5651 5644 5636 5629 5623 5618 5612 5603 5596 5587
5683 5662 5654 5678 5694 5706 5703 5701 5701 5684 5675 5668 5668 5685 5747 5748 5746 5746 5747 5748 5743 5736 5728 5722 5716 5710 5703 5694 5686 5680 5673 5667 5662 5655 5646 5638 5632 5625 5618 5613 5604 5595 5586 5580
5676 5654 5657 5648 5674 5682 5682 5694 5695 5687 5659 5675 5678 5709 5732 5737 5739 5741 5745 5746 5738 5732 5726 5718 5710 5702 5696 5688 5680 5675 5668 5663 5655 5646 5641 5634 5627 5619 5612 5603 5595 5587 5579 5573
5647 5644 5650 5661 5669 5675 5680 5686 5691 5682 5692 5683 5711 5700 5728 5735 5736 5744 5748 5735 5732 5729 5724 5718 5710 5702 5695 5685 5678 5671 5663 5655 5646 5641 5633 5627 5621 5613 5603 5595 5588 5581 5575 5569
5629 5632 5646 5651 5668 5671 5672 5689 5695 5696 5698 5693 5705 5704 5733 5742 5741 5740 5746 5739 5735 5732 5727 5719 5704 5698 5690 5683 5677 5665 5656 5647 5639 5633 5627 5622 5614 5604 5596 5589 5582 5576 5570 5563
5611 5615 5619 5626 5652 5662 5668 5694 5696 5703 5708 5714 5701 5728 5728 5728 5734 5742 5743 5744 5745 5735 5727 5719 5710 5702 5691 5682 5673 5660 5649 5639 5633 5626 5621 5615 5608 5600 5592 5584 5577 5571 5564 5557
5602 5607 5610 5606 5634 5625 5696 5707 5708 5701 5712 5716 5725 5730 5732 5737 5741 5747 5749 5746 5741 5734 5725 5714 5701 5694 5685 5675 5664 5651 5641 5634 5626 5619 5615 5609 5604 5596 5586 5578 5570 5563 5557 5550
5604 5598 5596 5600 5602 5646 5684 5689 5700 5700 5703 5723 5720 5729 5729 5727 5729 5734 5745 5749 5744 5737 5726 5715 5704 5690 5677 5669 5658 5648 5637 5628 5621 5615 5609 5603 5597 5589 5580 5572 5565 5558 5551 5545
5590 5592 5600 5594 5599 5610 5669 5692 5697 5699 5690 5731 5726 5722 5717 5717 5709 5730 5744 5745 5738 5730 5718 5706 5692 5681 5670 5655 5647 5638 5628 5622 5615 5610 5606 5597 5589 5582 5574 5566 5558 5551 5544 5539
5572 5570 5587 5595 5594 5630 5666 5686 5692 5659 5701 5730 5726 5722 5712 5712 5726 5732 5736 5725 5729 5720 5706 5694 5682 5672 5661 5648 5641 5629 5620 5618 5611 5604 5600 5592 5583 5577 5568 5560 5552 5545 5539 5534
5582 5575 5572 5574 5581 5611 5675 5672 5661 5688 5703 5705 5713 5718 5719 5713 5711 5714 5710 5708 5698 5696 5691 5683 5670 5657 5645 5635 5629 5619 5612 5610 5603 5598 5594 5586 5578 5571 5563 5553 5547 5541 5535 5529
5560 5572 5573 5577 5604 5648 5650 5651 5662 5670 5676 5690 5697 5710 5708 5703 5699 5701 5698 5692 5689 5684 5679 5675 5666 5653 5640 5635 5625 5611 5606 5601 5596 5590 5587 5580 5572 5564 5556 5549 5543 5538 5531 5525
5556 5560 5559 5565 5630 5622 5628 5641 5651 5664 5672 5685 5687 5695 5700 5698 5695 5693 5689 5682 5679 5674 5671 5665 5658 5648 5634 5624 5617 5608 5600 5596 5589 5583 5579 5572 5564 5557 5551 5545 5539 5534 5528 5522
5535 5538 5546 5572 5598 5602 5623 5627 5636 5648 5661 5671 5680 5685 5689 5689 5685 5688 5683 5676 5672 5667 5663 5656 5644 5633 5628 5615 5610 5602 5596 5589 5583 5577 5572 5566 5558 5551 5546 5542 5537 5532 5527 5519
5531 5534 5538 5567 5576 5576 5595 5606 5619 5628 5642 5660 5668 5672 5678 5681 5680 5672 5667 5663 5657 5655 5643 5641 5631 5623 5618 5612 5604 5597 5591 5585 5578 5573 5567 5561 5554 5549 5544 5540 5537 5530 5523 5516